Regional Weather Roundup
Issued by NWS Glasgow, MT

Home | Current Version | Previous Version | Text Only | Print | Product List | Glossary On
Versions: 1 2 3 4 5 6 7 8 9 10 11 12 13 14 15 16 17 18 19 20 21 22 23 24 25 26 27 28 29 30 31 32 33 34 35 36 37 38 39 40 41 42 43 44 45 46 47 48 49 50
000
ASUS45 KGGW 220115
RWRGGW
HOURLY REGIONAL WEATHER ROUNDUP FOR NORTHEAST MONTANA
NATIONAL WEATHER SERVICE GLASGOW MONTANA
700 PM MDT THU SEP 21 2017

NOTE: "FAIR" INDICATES FEW OR NO CLOUDS BELOW 12,000 FEET WITH NO
SIGNIFICANT WEATHER AND/OR OBSTRUCTIONS TO VISISBILITY.

NORTHEAST MONTANA


CITY           SKY/WX    TMP DP  RH WIND       PRES   REMARKS
GLASGOW        CLOUDY    56  33  42 W6        29.88R
WOLF POINT     CLOUDY    59  33  37 NW7       29.87R
JORDAN           N/A     55  34  45 N6        29.90R
WINNETT          N/A     53  32  44 W6          N/A
SIDNEY         MOCLDY    56  38  50 NW6       29.86R
GLENDIVE       PTCLDY    52  37  56 NW9       29.88R
SCOBEY           N/A     55  31  40 CALM      29.88R

FORT PECK REPORTS


CITY           SKY/WX    TMP DP  RH WIND       PRES   REMARKS
FORT PECK        N/A     56  32  40 NW9         N/A
THE PINES        N/A     57  30  35 W3          N/A

SOUTHEAST MONTANA


CITY           SKY/WX    TMP DP  RH WIND       PRES   REMARKS
BILLINGS       CLOUDY    46  42  86 SE5       29.91R
MILES CITY     CLOUDY    52  39  61 NW5       29.88R
BAKER          CLEAR     55  30  38 N13       29.85R
LIVINGSTON     LGT RAIN  42  38  85 E7        29.91R

CENTRAL MONTANA


CITY           SKY/WX    TMP DP  RH WIND       PRES   REMARKS
HAVRE          PTCLDY    51  32  48 N7        29.94R
LEWISTOWN      CLOUDY    49  30  48 N5        29.92R
GREAT FALLS    CLOUDY    50  28  42 NE8       29.91R
CUT BANK       CLOUDY    43  31  62 N14       29.96R
HELENA         CLOUDY    51  32  48 NE6       29.87S
BUTTE          CLOUDY    43  30  60 E5        29.88F
BOZEMAN        CLOUDY    44  35  70 CALM      29.90S

WESTERN MONTANA


CITY           SKY/WX    TMP DP  RH WIND       PRES   REMARKS
MISSOULA       CLOUDY    49  35  58 NW7       29.88S
KALISPELL      NOT AVBL

NORTH DAKOTA


CITY           SKY/WX    TMP DP  RH WIND       PRES   REMARKS
WILLISTON      CLOUDY    53  41  63 NW7       29.85R
DICKINSON      CLEAR     58  39  49 N9        29.80R
MINOT          CLEAR     60  44  55 NW13      29.78R
BISMARCK       CLEAR     68  45  43 N8        29.73R

SOUTHERN SASKATCHEWAN


CITY           SKY/WX    TMP DP  RH WIND       PRES   REMARKS
REGINA         PTCLDY    50  34  53 NW12      29.87R
MOOSE JAW      PTCLDY    50  34  53 NW8       29.89
ESTEVAN        MOCLDY    50  37  62 NW5       29.85R
SWIFT CURRENT  CLEAR     43  30  61 W9        29.89R




USA.gov is the U.S. government's official web portal to all federal, state and local government web resources and services.